Year,Month,Day,Hour,Minute,Value (Times are PST for temperature in C)
2016,04,02,07,42,5.80
2016,04,02,07,43,5.80
2016,04,02,07,44,5.80
2016,04,02,07,45,5.80
2016,04,02,07,46,5.80
2016,04,02,07,47,5.80
2016,04,02,07,48,5.90
2016,04,02,07,49,5.90
2016,04,02,07,50,5.90
2016,04,02,07,51,5.90
2016,04,02,07,52,6.00
2016,04,02,07,53,6.00
2016,04,02,07,54,6.10
2016,04,02,07,55,6.20
2016,04,02,07,56,6.20
2016,04,02,07,57,6.30
2016,04,02,07,58,6.50
2016,04,02,07,59,6.60
2016,04,02,08,00,6.70
2016,04,02,08,01,6.80
2016,04,02,08,02,6.90
2016,04,02,08,03,7.00
2016,04,02,08,04,7.10
2016,04,02,08,05,7.20
2016,04,02,08,06,7.30
2016,04,02,08,07,7.40
2016,04,02,08,08,7.40
2016,04,02,08,09,7.40
2016,04,02,08,10,7.50
2016,04,02,08,11,7.50
2016,04,02,08,12,7.50
2016,04,02,08,13,7.60
2016,04,02,08,14,7.60
2016,04,02,08,15,7.60
2016,04,02,08,16,7.50
2016,04,02,08,17,7.50
2016,04,02,08,18,7.40
2016,04,02,08,19,7.40
2016,04,02,08,20,7.40
2016,04,02,08,21,7.40
2016,04,02,08,22,7.30
2016,04,02,08,23,7.30
2016,04,02,08,24,7.30
2016,04,02,08,25,7.30
2016,04,02,08,26,7.30
2016,04,02,08,27,7.30
2016,04,02,08,28,7.30
2016,04,02,08,29,7.30
2016,04,02,08,30,7.30
2016,04,02,08,31,7.30
2016,04,02,08,32,7.40
2016,04,02,08,33,7.50
2016,04,02,08,34,7.60
2016,04,02,08,35,7.70
2016,04,02,08,36,7.70
2016,04,02,08,37,7.80
2016,04,02,08,38,8.00
2016,04,02,08,39,8.10
2016,04,02,08,40,8.20
2016,04,02,08,41,8.30
2016,04,02,08,42,8.40
2016,04,02,08,43,8.40
2016,04,02,08,44,8.50
2016,04,02,08,45,8.60
2016,04,02,08,46,8.60
2016,04,02,08,47,8.60
2016,04,02,08,48,8.70
2016,04,02,08,49,8.70
2016,04,02,08,50,8.70
2016,04,02,08,51,8.80
2016,04,02,08,52,8.80
2016,04,02,08,53,8.90
2016,04,02,08,54,9.00
2016,04,02,08,55,9.00
2016,04,02,08,56,9.10
2016,04,02,08,57,9.20
2016,04,02,08,58,9.20
2016,04,02,08,59,9.20
2016,04,02,09,00,9.20
2016,04,02,09,01,9.20
2016,04,02,09,02,9.30
2016,04,02,09,03,9.30
2016,04,02,09,04,9.40
2016,04,02,09,05,9.50
2016,04,02,09,06,9.60
2016,04,02,09,07,9.70
2016,04,02,09,08,9.80
2016,04,02,09,09,9.80
2016,04,02,09,10,9.80
2016,04,02,09,11,9.80
2016,04,02,09,12,9.80
2016,04,02,09,13,9.80
2016,04,02,09,14,9.80
2016,04,02,09,15,9.70
2016,04,02,09,16,9.70
2016,04,02,09,17,9.70
2016,04,02,09,18,9.70
2016,04,02,09,19,9.70
2016,04,02,09,20,9.80
2016,04,02,09,21,9.80
2016,04,02,09,22,9.90
2016,04,02,09,23,10.00
2016,04,02,09,24,10.10
2016,04,02,09,25,10.10
2016,04,02,09,26,10.20
2016,04,02,09,27,10.30
2016,04,02,09,28,10.40
2016,04,02,09,29,10.50
2016,04,02,09,30,10.60
2016,04,02,09,31,10.70
2016,04,02,09,32,10.80
2016,04,02,09,33,10.90
2016,04,02,09,34,11.00
2016,04,02,09,35,11.10
2016,04,02,09,36,11.20
2016,04,02,09,37,11.30
2016,04,02,09,38,11.30
2016,04,02,09,39,11.30
2016,04,02,09,40,11.30
2016,04,02,09,41,11.40
2016,04,02,09,42,11.40
2016,04,02,09,43,11.40
2016,04,02,09,44,11.40
2016,04,02,09,45,11.50
2016,04,02,09,46,11.50
2016,04,02,09,47,11.50
2016,04,02,09,48,11.50
2016,04,02,09,49,11.60
2016,04,02,09,50,11.70
2016,04,02,09,51,11.70
2016,04,02,09,52,11.80
2016,04,02,09,53,11.90
2016,04,02,09,54,12.00
2016,04,02,09,55,12.00
2016,04,02,09,56,12.00
2016,04,02,09,57,12.00
2016,04,02,09,58,12.00
2016,04,02,09,59,11.90
2016,04,02,10,00,11.90
2016,04,02,10,01,12.00
2016,04,02,10,02,12.00
2016,04,02,10,03,12.10
2016,04,02,10,04,12.20
2016,04,02,10,05,12.20
2016,04,02,10,06,12.20
2016,04,02,10,07,12.20
2016,04,02,10,08,12.10
2016,04,02,10,09,12.00
2016,04,02,10,10,12.00
2016,04,02,10,11,11.90
2016,04,02,10,12,11.90
2016,04,02,10,13,11.90
2016,04,02,10,14,11.80
2016,04,02,10,15,11.80
2016,04,02,10,16,11.90
2016,04,02,10,17,11.90
2016,04,02,10,18,12.00
2016,04,02,10,19,12.10
2016,04,02,10,20,12.20
2016,04,02,10,21,12.20
2016,04,02,10,22,12.20
2016,04,02,10,23,12.30
2016,04,02,10,24,12.30
2016,04,02,10,25,12.40
2016,04,02,10,26,12.40
2016,04,02,10,27,12.40
2016,04,02,10,28,12.50
2016,04,02,10,29,12.60
2016,04,02,10,30,12.70
2016,04,02,10,31,12.80
2016,04,02,10,32,12.90
2016,04,02,10,33,12.90
2016,04,02,10,34,13.00
2016,04,02,10,35,13.10
2016,04,02,10,36,13.10
2016,04,02,10,37,13.10
2016,04,02,10,38,13.20
2016,04,02,10,39,13.30
2016,04,02,10,40,13.40
2016,04,02,10,41,13.50
2016,04,02,10,42,13.60
2016,04,02,10,43,13.70
2016,04,02,10,44,13.70
2016,04,02,10,45,13.80
2016,04,02,10,46,13.80
2016,04,02,10,47,13.80
2016,04,02,10,48,13.80
2016,04,02,10,49,13.80
2016,04,02,10,50,13.80
2016,04,02,10,51,13.80
2016,04,02,10,52,13.80
2016,04,02,10,53,13.80
2016,04,02,10,54,13.90
2016,04,02,10,55,14.00
2016,04,02,10,56,14.10
2016,04,02,10,57,14.20
2016,04,02,10,58,14.30
2016,04,02,10,59,14.30
2016,04,02,11,00,14.40
2016,04,02,11,01,14.40
2016,04,02,11,02,14.50
2016,04,02,11,03,14.50
2016,04,02,11,04,14.60
2016,04,02,11,05,14.60
2016,04,02,11,06,14.50
2016,04,02,11,07,14.50
2016,04,02,11,08,14.40
2016,04,02,11,09,14.20
2016,04,02,11,10,14.10
2016,04,02,11,11,14.00
2016,04,02,11,12,14.00
2016,04,02,11,13,13.90
2016,04,02,11,14,13.90
2016,04,02,11,15,13.80
2016,04,02,11,16,13.70
2016,04,02,11,17,13.80
2016,04,02,11,18,13.90
2016,04,02,11,19,14.00
2016,04,02,11,20,14.00
2016,04,02,11,21,13.90
2016,04,02,11,22,13.80
2016,04,02,11,23,13.70
2016,04,02,11,24,13.60
2016,04,02,11,25,13.60
2016,04,02,11,26,13.70
2016,04,02,11,27,13.80
2016,04,02,11,28,13.90
2016,04,02,11,29,14.00
2016,04,02,11,30,14.20
2016,04,02,11,31,14.30
2016,04,02,11,32,14.40
2016,04,02,11,33,14.40
2016,04,02,11,34,14.40
2016,04,02,11,35,14.30
2016,04,02,11,36,14.30
2016,04,02,11,37,14.10
2016,04,02,11,38,14.10
2016,04,02,11,39,14.10
2016,04,02,11,40,14.00
2016,04,02,11,41,13.90
2016,04,02,11,42,13.90
2016,04,02,11,43,13.90
2016,04,02,11,44,13.90
2016,04,02,11,45,13.90
2016,04,02,11,46,13.90
2016,04,02,11,47,13.90
2016,04,02,11,48,14.00
2016,04,02,11,49,14.10
2016,04,02,11,50,14.10
2016,04,02,11,51,14.20
2016,04,02,11,52,14.20
2016,04,02,11,53,14.30
2016,04,02,11,54,14.30
2016,04,02,11,55,14.40
2016,04,02,11,56,14.40
2016,04,02,11,57,14.40
2016,04,02,11,58,14.30
2016,04,02,11,59,14.30
2016,04,02,12,00,14.40
2016,04,02,12,01,14.40
2016,04,02,12,02,14.40
2016,04,02,12,03,14.40
2016,04,02,12,04,14.30
2016,04,02,12,05,14.40
2016,04,02,12,06,14.40
2016,04,02,12,07,14.50
2016,04,02,12,08,14.60
2016,04,02,12,09,14.70
2016,04,02,12,10,14.90
2016,04,02,12,11,14.90
2016,04,02,12,12,14.90
2016,04,02,12,13,14.80
2016,04,02,12,14,14.80
2016,04,02,12,15,14.90
2016,04,02,12,16,15.10
2016,04,02,12,17,15.20
2016,04,02,12,18,15.20
2016,04,02,12,19,15.20
2016,04,02,12,20,15.20
2016,04,02,12,21,15.10
2016,04,02,12,22,15.00
2016,04,02,12,23,14.80
2016,04,02,12,24,14.90
2016,04,02,12,25,14.80
2016,04,02,12,26,14.70
2016,04,02,12,27,14.70
2016,04,02,12,28,14.70
2016,04,02,12,29,14.70
2016,04,02,12,30,14.70
2016,04,02,12,31,14.60
2016,04,02,12,32,14.60
2016,04,02,12,33,14.60
2016,04,02,12,34,14.60
2016,04,02,12,35,14.50
2016,04,02,12,36,14.40
2016,04,02,12,37,14.30
2016,04,02,12,38,14.20
2016,04,02,12,39,14.20
2016,04,02,12,40,14.30
2016,04,02,12,41,14.40
2016,04,02,12,42,14.30
2016,04,02,12,43,14.30
2016,04,02,12,44,14.30
2016,04,02,12,45,14.20
2016,04,02,12,46,14.20
2016,04,02,12,47,14.30
2016,04,02,12,48,14.20
2016,04,02,12,49,14.10
2016,04,02,12,50,14.10
2016,04,02,12,51,14.10
2016,04,02,12,52,14.00
2016,04,02,12,53,14.00
2016,04,02,12,54,13.90
2016,04,02,12,55,13.80
2016,04,02,12,56,13.90
2016,04,02,12,57,13.90
2016,04,02,12,58,14.00
2016,04,02,12,59,13.90
2016,04,02,13,00,13.90
2016,04,02,13,01,13.80
2016,04,02,13,02,13.70
2016,04,02,13,03,13.70
2016,04,02,13,04,13.70
2016,04,02,13,05,13.70
2016,04,02,13,06,13.80
2016,04,02,13,07,13.90
2016,04,02,13,08,13.90
2016,04,02,13,09,14.00
2016,04,02,13,10,14.00
2016,04,02,13,11,14.10
2016,04,02,13,12,14.10
2016,04,02,13,13,14.20
2016,04,02,13,14,14.20
2016,04,02,13,15,14.30
2016,04,02,13,16,14.40
2016,04,02,13,17,14.40
2016,04,02,13,18,14.40
2016,04,02,13,19,14.30
2016,04,02,13,20,14.20
2016,04,02,13,21,14.30
2016,04,02,13,22,14.30
2016,04,02,13,23,14.30
2016,04,02,13,24,14.30
2016,04,02,13,25,14.30
2016,04,02,13,26,14.30
2016,04,02,13,27,14.40
2016,04,02,13,28,14.50
2016,04,02,13,29,14.50
2016,04,02,13,30,14.60
2016,04,02,13,31,14.60
2016,04,02,13,32,14.70
2016,04,02,13,33,14.80
2016,04,02,13,34,14.80
2016,04,02,13,35,14.90
2016,04,02,13,36,14.90
2016,04,02,13,37,14.90
2016,04,02,13,38,14.90
2016,04,02,13,39,15.00
2016,04,02,13,40,15.10
2016,04,02,13,41,15.20
2016,04,02,13,42,15.30
2016,04,02,13,43,15.50
2016,04,02,13,44,15.50
2016,04,02,13,45,15.40
2016,04,02,13,46,15.40
2016,04,02,13,47,15.30
2016,04,02,13,48,15.20
2016,04,02,13,49,15.20
2016,04,02,13,50,15.10
2016,04,02,13,51,15.10
2016,04,02,13,52,15.10
2016,04,02,13,53,15.10
2016,04,02,13,54,15.20
2016,04,02,13,55,15.30
2016,04,02,13,56,15.30
2016,04,02,13,57,15.40
2016,04,02,13,58,15.30
2016,04,02,13,59,15.40
2016,04,02,14,00,15.50
2016,04,02,14,01,15.60
2016,04,02,14,02,15.70
2016,04,02,14,03,15.80
2016,04,02,14,04,15.70
2016,04,02,14,05,15.80
2016,04,02,14,06,15.70
2016,04,02,14,07,15.80
2016,04,02,14,08,15.90
2016,04,02,14,09,16.00
2016,04,02,14,10,16.00
2016,04,02,14,11,16.10
2016,04,02,14,12,16.10
2016,04,02,14,13,16.20
2016,04,02,14,14,16.20
2016,04,02,14,15,16.30
2016,04,02,14,16,16.30
2016,04,02,14,17,16.30
2016,04,02,14,18,16.30
2016,04,02,14,19,16.20
2016,04,02,14,20,16.10
2016,04,02,14,21,16.00
2016,04,02,14,22,15.90
2016,04,02,14,23,15.80
2016,04,02,14,24,15.70
2016,04,02,14,25,15.60
2016,04,02,14,26,15.60
2016,04,02,14,27,15.60
2016,04,02,14,28,15.60
2016,04,02,14,29,15.50
2016,04,02,14,30,15.50
2016,04,02,14,31,15.40
2016,04,02,14,32,15.30
2016,04,02,14,33,15.30
2016,04,02,14,34,15.20
2016,04,02,14,35,15.30
2016,04,02,14,36,15.30
2016,04,02,14,37,15.40
2016,04,02,14,38,15.40
2016,04,02,14,39,15.50
2016,04,02,14,40,15.70
2016,04,02,14,41,15.80
2016,04,02,14,42,15.80
2016,04,02,14,43,15.80
2016,04,02,14,44,15.80
2016,04,02,14,45,15.70
2016,04,02,14,46,15.70
2016,04,02,14,47,15.60
2016,04,02,14,48,15.60
2016,04,02,14,49,15.60
2016,04,02,14,50,15.70
2016,04,02,14,51,15.70
2016,04,02,14,52,15.80
2016,04,02,14,53,15.90
2016,04,02,14,54,15.90
2016,04,02,14,55,16.00
2016,04,02,14,56,16.10
2016,04,02,14,57,16.10
2016,04,02,14,58,16.10
2016,04,02,14,59,16.00
2016,04,02,15,00,15.90
2016,04,02,15,01,15.90
2016,04,02,15,02,15.80
2016,04,02,15,03,15.80
2016,04,02,15,04,15.80
2016,04,02,15,05,15.80
2016,04,02,15,06,15.90
2016,04,02,15,07,15.90
2016,04,02,15,08,15.80
2016,04,02,15,09,15.90
2016,04,02,15,10,15.90
2016,04,02,15,11,16.00
2016,04,02,15,12,16.10
2016,04,02,15,13,16.10
2016,04,02,15,14,16.10
2016,04,02,15,15,16.20
2016,04,02,15,16,16.20
2016,04,02,15,17,16.40
2016,04,02,15,18,16.60
2016,04,02,15,19,16.70
2016,04,02,15,20,16.80
2016,04,02,15,21,16.70
2016,04,02,15,22,16.70
2016,04,02,15,23,16.70
2016,04,02,15,24,16.70
2016,04,02,15,25,16.80
2016,04,02,15,26,16.80
2016,04,02,15,27,16.80
2016,04,02,15,28,16.80
2016,04,02,15,29,16.80
2016,04,02,15,30,16.70
2016,04,02,15,31,16.70
2016,04,02,15,32,16.70
2016,04,02,15,33,16.80
2016,04,02,15,34,16.90
2016,04,02,15,35,16.90
2016,04,02,15,36,16.90
2016,04,02,15,37,16.90
2016,04,02,15,38,16.90
2016,04,02,15,39,16.90
2016,04,02,15,40,16.90
2016,04,02,15,41,17.00
2016,04,02,15,42,17.10
2016,04,02,15,43,17.10
2016,04,02,15,44,17.10
2016,04,02,15,45,17.10
2016,04,02,15,46,17.10
2016,04,02,15,47,17.20
2016,04,02,15,48,17.20
2016,04,02,15,49,17.30
2016,04,02,15,50,17.30
2016,04,02,15,51,17.20
2016,04,02,15,52,17.10
2016,04,02,15,53,17.10
2016,04,02,15,54,17.10
2016,04,02,15,55,17.10
2016,04,02,15,56,17.10
2016,04,02,15,57,17.10
2016,04,02,15,58,17.10
2016,04,02,15,59,17.10
2016,04,02,16,00,17.10
2016,04,02,16,01,17.10
2016,04,02,16,02,17.10
2016,04,02,16,03,17.00
2016,04,02,16,04,17.00
2016,04,02,16,05,16.90
2016,04,02,16,06,16.90
2016,04,02,16,07,16.90
2016,04,02,16,08,17.10
2016,04,02,16,09,17.20
2016,04,02,16,10,17.20
2016,04,02,16,11,17.10
2016,04,02,16,12,17.00
2016,04,02,16,13,16.90
2016,04,02,16,14,16.90
2016,04,02,16,15,16.90
2016,04,02,16,16,16.90
2016,04,02,16,17,16.90
2016,04,02,16,18,17.00
2016,04,02,16,19,17.00
2016,04,02,16,20,16.90
2016,04,02,16,21,16.90
2016,04,02,16,22,17.00
2016,04,02,16,23,17.00
2016,04,02,16,24,17.10
2016,04,02,16,25,17.20
2016,04,02,16,26,17.20
2016,04,02,16,27,17.20
2016,04,02,16,28,17.30
2016,04,02,16,29,17.30
2016,04,02,16,30,17.30
2016,04,02,16,31,17.20
2016,04,02,16,32,17.20
2016,04,02,16,33,17.30
2016,04,02,16,34,17.30
2016,04,02,16,35,17.30
2016,04,02,16,36,17.30
2016,04,02,16,37,17.30
2016,04,02,16,38,17.30
2016,04,02,16,39,17.30
2016,04,02,16,40,17.30
2016,04,02,16,41,17.30
2016,04,02,16,42,17.20
2016,04,02,16,43,17.10
2016,04,02,16,44,17.10
2016,04,02,16,45,17.00
2016,04,02,16,46,17.00
2016,04,02,16,47,17.00
2016,04,02,16,48,17.10
2016,04,02,16,49,17.20
2016,04,02,16,50,17.30
2016,04,02,16,51,17.50
2016,04,02,16,52,17.50
2016,04,02,16,53,17.50
2016,04,02,16,54,17.50
2016,04,02,16,55,17.50
2016,04,02,16,56,17.60
2016,04,02,16,57,17.60
2016,04,02,16,58,17.60
2016,04,02,16,59,17.50
2016,04,02,17,00,17.50
2016,04,02,17,01,17.50
2016,04,02,17,02,17.50
2016,04,02,17,03,17.60
2016,04,02,17,04,17.60
2016,04,02,17,05,17.70
2016,04,02,17,06,17.70
2016,04,02,17,07,17.70
2016,04,02,17,08,17.80
2016,04,02,17,09,17.80
2016,04,02,17,10,17.80
2016,04,02,17,11,17.80
2016,04,02,17,12,17.90
2016,04,02,17,13,17.90
2016,04,02,17,14,18.00
2016,04,02,17,15,18.00
2016,04,02,17,16,18.00
2016,04,02,17,17,18.10
2016,04,02,17,18,18.10
2016,04,02,17,19,18.00
2016,04,02,17,20,17.90
2016,04,02,17,21,17.90
2016,04,02,17,22,17.90
2016,04,02,17,23,17.80
2016,04,02,17,24,17.80
2016,04,02,17,25,17.70
2016,04,02,17,26,17.70
2016,04,02,17,27,17.70
2016,04,02,17,28,17.70
2016,04,02,17,29,17.70
2016,04,02,17,30,17.60
2016,04,02,17,31,17.60
2016,04,02,17,32,17.60
2016,04,02,17,33,17.50
2016,04,02,17,34,17.50
2016,04,02,17,35,17.50
2016,04,02,17,36,17.50
2016,04,02,17,37,17.50
2016,04,02,17,38,17.60
2016,04,02,17,39,17.60
2016,04,02,17,40,17.70
2016,04,02,17,41,17.80
2016,04,02,17,42,17.90
2016,04,02,17,43,17.90
2016,04,02,17,44,17.90
2016,04,02,17,45,17.80
2016,04,02,17,46,17.80
2016,04,02,17,47,17.70
2016,04,02,17,48,17.50
2016,04,02,17,49,17.20
2016,04,02,17,50,17.00
2016,04,02,17,51,16.90
2016,04,02,17,52,16.70
2016,04,02,17,53,16.60
2016,04,02,17,54,16.50
2016,04,02,17,55,16.40
2016,04,02,17,56,16.30
2016,04,02,17,57,16.20
2016,04,02,17,58,16.10
2016,04,02,17,59,16.10
2016,04,02,18,00,16.10
2016,04,02,18,01,16.00
2016,04,02,18,02,16.00
2016,04,02,18,03,15.90
2016,04,02,18,04,15.80
2016,04,02,18,05,15.70
2016,04,02,18,06,15.60
2016,04,02,18,07,15.50
2016,04,02,18,08,15.50
2016,04,02,18,09,15.40
2016,04,02,18,10,15.40
2016,04,02,18,11,15.30
2016,04,02,18,12,15.30
2016,04,02,18,13,15.20
2016,04,02,18,14,15.20
2016,04,02,18,15,15.20
2016,04,02,18,16,15.20
2016,04,02,18,17,15.20
2016,04,02,18,18,15.20
2016,04,02,18,19,15.10
2016,04,02,18,20,15.10
2016,04,02,18,21,15.00
2016,04,02,18,22,15.00
2016,04,02,18,23,14.90
2016,04,02,18,24,14.80
2016,04,02,18,25,14.80
2016,04,02,18,26,14.70
2016,04,02,18,27,14.70
2016,04,02,18,28,14.60
2016,04,02,18,29,14.50
2016,04,02,18,30,14.50
2016,04,02,18,31,14.40
2016,04,02,18,32,14.40
2016,04,02,18,33,14.40
2016,04,02,18,34,14.30
2016,04,02,18,35,14.30
2016,04,02,18,36,14.30
2016,04,02,18,37,14.30
2016,04,02,18,38,14.30
2016,04,02,18,39,14.20
2016,04,02,18,40,14.10
2016,04,02,18,41,14.00
2016,04,02,18,42,13.90
2016,04,02,18,43,13.90
2016,04,02,18,44,13.80
2016,04,02,18,45,13.70
2016,04,02,18,46,13.60
2016,04,02,18,47,13.50
2016,04,02,18,48,13.50
2016,04,02,18,49,13.40
2016,04,02,18,50,13.30
2016,04,02,18,51,13.30
2016,04,02,18,52,13.20
2016,04,02,18,53,13.20
2016,04,02,18,54,13.20
2016,04,02,18,55,13.10
2016,04,02,18,56,13.10
2016,04,02,18,57,13.10
2016,04,02,18,58,13.10
2016,04,02,18,59,13.00
2016,04,02,19,00,12.90
2016,04,02,19,01,12.90
2016,04,02,19,02,12.80
2016,04,02,19,03,12.70
2016,04,02,19,04,12.70
2016,04,02,19,05,12.60
2016,04,02,19,06,12.50
2016,04,02,19,07,12.50
2016,04,02,19,08,12.40
2016,04,02,19,09,12.40
2016,04,02,19,10,12.30
2016,04,02,19,11,12.30
2016,04,02,19,12,12.30
2016,04,02,19,13,12.30
2016,04,02,19,14,12.20
2016,04,02,19,15,12.20
2016,04,02,19,16,12.20
2016,04,02,19,17,12.20
2016,04,02,19,18,12.10
2016,04,02,19,19,12.10
2016,04,02,19,20,12.10
2016,04,02,19,21,12.10
2016,04,02,19,22,12.00
2016,04,02,19,23,12.00
2016,04,02,19,24,11.90
2016,04,02,19,25,11.90
2016,04,02,19,26,11.80
2016,04,02,19,27,11.80
2016,04,02,19,28,11.80
2016,04,02,19,29,11.80
2016,04,02,19,30,11.70
2016,04,02,19,31,11.70
2016,04,02,19,32,11.70
2016,04,02,19,33,11.70
2016,04,02,19,34,11.60
2016,04,02,19,35,11.60
2016,04,02,19,36,11.60
2016,04,02,19,37,11.50
2016,04,02,19,38,11.50
2016,04,02,19,39,11.50
2016,04,02,19,40,11.40
2016,04,02,19,41,11.40
2016,04,02,19,42,11.40
2016,04,02,19,43,11.40
2016,04,02,19,44,11.40
2016,04,02,19,45,11.40
2016,04,02,19,46,11.40
2016,04,02,19,47,11.40
2016,04,02,19,48,11.30
2016,04,02,19,49,11.30
2016,04,02,19,50,11.30
2016,04,02,19,51,11.30
2016,04,02,19,52,11.30
2016,04,02,19,53,11.30
2016,04,02,19,54,11.30
2016,04,02,19,55,11.30
2016,04,02,19,56,11.30
2016,04,02,19,57,11.30
2016,04,02,19,58,11.20
2016,04,02,19,59,11.20
2016,04,02,20,00,11.20
2016,04,02,20,01,11.20
2016,04,02,20,02,11.20
2016,04,02,20,03,11.20
2016,04,02,20,04,11.20
2016,04,02,20,05,11.20
2016,04,02,20,06,11.20
2016,04,02,20,07,11.20
2016,04,02,20,08,11.20
2016,04,02,20,09,11.20
2016,04,02,20,10,11.20
2016,04,02,20,11,11.20
2016,04,02,20,12,11.20
2016,04,02,20,13,11.20
2016,04,02,20,14,11.20
2016,04,02,20,15,11.20
2016,04,02,20,16,11.20
2016,04,02,20,17,11.20
2016,04,02,20,18,11.20
2016,04,02,20,19,11.10
2016,04,02,20,20,11.10
2016,04,02,20,21,11.10
2016,04,02,20,22,11.10
2016,04,02,20,23,11.10
2016,04,02,20,24,11.00
2016,04,02,20,25,11.00
2016,04,02,20,26,11.00
2016,04,02,20,27,11.00
2016,04,02,20,28,11.00
2016,04,02,20,29,10.90
2016,04,02,20,30,10.90
2016,04,02,20,31,10.90
2016,04,02,20,32,10.90
2016,04,02,20,33,10.90
2016,04,02,20,34,10.80
2016,04,02,20,35,10.80
2016,04,02,20,36,10.80
2016,04,02,20,37,10.80
2016,04,02,20,38,10.80
2016,04,02,20,39,10.80
2016,04,02,20,40,10.80
2016,04,02,20,41,10.70
2016,04,02,20,42,10.70
2016,04,02,20,43,10.70
2016,04,02,20,44,10.70
2016,04,02,20,45,10.70
2016,04,02,20,46,10.60
2016,04,02,20,47,10.60
2016,04,02,20,48,10.60
2016,04,02,20,49,10.60
2016,04,02,20,50,10.60
2016,04,02,20,51,10.60
2016,04,02,20,52,10.60
2016,04,02,20,53,10.60
2016,04,02,20,54,10.50
2016,04,02,20,55,10.50
2016,04,02,20,56,10.50
2016,04,02,20,57,10.50
2016,04,02,20,58,10.50
2016,04,02,20,59,10.50
2016,04,02,21,00,10.50
2016,04,02,21,01,10.50
2016,04,02,21,02,10.50
2016,04,02,21,03,10.50
2016,04,02,21,04,10.50
2016,04,02,21,05,10.50
2016,04,02,21,06,10.50
2016,04,02,21,07,10.50
2016,04,02,21,08,10.50
2016,04,02,21,09,10.50
2016,04,02,21,10,10.50
2016,04,02,21,11,10.50
2016,04,02,21,12,10.50
2016,04,02,21,13,10.40
2016,04,02,21,14,10.40
2016,04,02,21,15,10.40
2016,04,02,21,16,10.40
2016,04,02,21,17,10.40
2016,04,02,21,18,10.40
2016,04,02,21,19,10.40
2016,04,02,21,20,10.40
2016,04,02,21,21,10.40
2016,04,02,21,22,10.40
2016,04,02,21,23,10.40
2016,04,02,21,24,10.40
2016,04,02,21,25,10.50
2016,04,02,21,26,10.50
2016,04,02,21,27,10.40
2016,04,02,21,28,10.40
2016,04,02,21,29,10.40
2016,04,02,21,30,10.40
2016,04,02,21,31,10.40
2016,04,02,21,32,10.40
2016,04,02,21,33,10.40
2016,04,02,21,34,10.40
2016,04,02,21,35,10.40
2016,04,02,21,36,10.40
2016,04,02,21,37,10.40
2016,04,02,21,38,10.40
2016,04,02,21,39,10.40
2016,04,02,21,40,10.40
2016,04,02,21,41,10.40
2016,04,02,21,42,10.40
2016,04,02,21,43,10.40
2016,04,02,21,44,10.40
2016,04,02,21,45,10.40
2016,04,02,21,46,10.30
2016,04,02,21,47,10.30
2016,04,02,21,48,10.30
2016,04,02,21,49,10.30
2016,04,02,21,50,10.30
2016,04,02,21,51,10.30
2016,04,02,21,52,10.30
2016,04,02,21,53,10.30
2016,04,02,21,54,10.30
2016,04,02,21,55,10.30
2016,04,02,21,56,10.30
2016,04,02,21,57,10.30
2016,04,02,21,58,10.30
2016,04,02,21,59,10.30
2016,04,02,22,00,10.20
2016,04,02,22,01,10.20
2016,04,02,22,02,10.20
2016,04,02,22,03,10.10
2016,04,02,22,04,10.10
2016,04,02,22,05,10.10
2016,04,02,22,06,10.00
2016,04,02,22,07,10.00
2016,04,02,22,08,9.90
2016,04,02,22,09,9.90
2016,04,02,22,10,9.90
2016,04,02,22,11,9.90
2016,04,02,22,12,9.90
2016,04,02,22,13,9.90
2016,04,02,22,14,9.90
2016,04,02,22,15,9.90
2016,04,02,22,16,9.90
2016,04,02,22,17,9.90
